Location: Newark
(45.7667°N, 11.5167°E)
Time: 07:26:23
(UTC+00:00)

Envisat - Pass Details

Date: 02 February 2020
Orbit: 764 x 766 km, 98.1° (Epoch: 20 February)

Event Time Altitude Azimuth Distance (km) Brightness Sun altitude
Rises 17:30:23 0° 183° (S) 3,219 6.4 -12.4°
Reaches altitude 10° 17:32:47 10° 190° (S) 2,297 5.7 -12.8°
Maximum altitude 17:37:36 44° 262° (W) 1,054 4.3 -13.7°
Drops below altitude 10° 17:42:28 10° 334° (NNW) 2,313 5.7 -14.5°
Sets 17:44:54 0° 341° (NNW) 3,243 6.4 -14.9°
